TimeCST,TemperatureF,Dew PointF,Humidity,Sea Level PressureIn,VisibilityMPH,Wind Direction,Wind SpeedMPH,Gust SpeedMPH,PrecipitationIn,Events,Conditions,WindDirDegrees,DateUTC
12:15 AM,26.6,24.8,93,30.03,7.0,Calm,Calm,-,N/A,Snow,Light Snow,0,2012-12-08 06:15:00
12:35 AM,26.6,24.8,93,30.03,7.0,Calm,Calm,-,N/A,,Scattered Clouds,0,2012-12-08 06:35:00
12:55 AM,26.6,24.8,93,30.03,7.0,Calm,Calm,-,N/A,,Mostly Cloudy,0,2012-12-08 06:55:00
1:15 AM,26.6,24.8,93,30.03,7.0,Calm,Calm,-,N/A,,Mostly Cloudy,0,2012-12-08 07:15:00
1:35 AM,26.6,24.8,93,30.03,5.0,Calm,Calm,-,N/A,Snow,Light Snow,0,2012-12-08 07:35:00
1:55 AM,26.6,24.8,93,30.03,5.0,Calm,Calm,-,N/A,,Overcast,0,2012-12-08 07:55:00
2:15 AM,26.6,24.8,93,30.03,7.0,Calm,Calm,-,N/A,,Overcast,0,2012-12-08 08:15:00
2:35 AM,26.6,24.8,93,30.04,7.0,Calm,Calm,-,N/A,,Overcast,0,2012-12-08 08:35:00
2:55 AM,26.6,24.8,93,30.04,7.0,Calm,Calm,-,N/A,,Overcast,0,2012-12-08 08:55:00
3:15 AM,26.6,24.8,93,30.04,7.0,Calm,Calm,-,N/A,,Overcast,0,2012-12-08 09:15:00
3:35 AM,26.6,24.8,93,30.04,7.0,Calm,Calm,-,N/A,,Overcast,0,2012-12-08 09:35:00
3:55 AM,26.6,24.8,93,30.04,10.0,Calm,Calm,-,N/A,,Overcast,0,2012-12-08 09:55:00
4:15 AM,26.6,24.8,93,30.04,7.0,Calm,Calm,-,N/A,,Overcast,0,2012-12-08 10:15:00
4:35 AM,26.6,24.8,93,30.04,10.0,Calm,Calm,-,N/A,,Overcast,0,2012-12-08 10:35:00
5:15 AM,26.6,24.8,93,30.04,10.0,East,3.5,-,N/A,,Overcast,80,2012-12-08 11:15:00
5:35 AM,26.6,24.8,93,30.05,10.0,Calm,Calm,-,N/A,,Overcast,0,2012-12-08 11:35:00
5:55 AM,26.6,24.8,93,30.05,10.0,Calm,Calm,-,N/A,,Overcast,0,2012-12-08 11:55:00
6:15 AM,26.6,24.8,93,30.05,7.0,Calm,Calm,-,N/A,,Overcast,0,2012-12-08 12:15:00
6:35 AM,26.6,24.8,93,30.06,7.0,Calm,Calm,-,N/A,,Overcast,0,2012-12-08 12:35:00
6:55 AM,26.6,24.8,93,30.06,7.0,Calm,Calm,-,N/A,,Overcast,0,2012-12-08 12:55:00
7:15 AM,26.6,24.8,93,30.06,7.0,Calm,Calm,-,N/A,,Overcast,0,2012-12-08 13:15:00
7:34 AM,26.6,24.8,93,30.05,7.0,East,3.5,-,N/A,,Overcast,90,2012-12-08 13:34:00
7:55 AM,26.6,24.8,93,30.05,7.0,East,3.5,-,N/A,,Overcast,80,2012-12-08 13:55:00
8:15 AM,26.6,24.8,93,30.05,7.0,East,3.5,-,N/A,,Overcast,100,2012-12-08 14:15:00
8:34 AM,28.4,24.8,86,30.06,10.0,East,4.6,-,N/A,,Overcast,90,2012-12-08 14:34:00
8:55 AM,28.4,23.0,80,30.06,10.0,East,4.6,-,N/A,,Mostly Cloudy,100,2012-12-08 14:55:00
9:15 AM,28.4,23.0,80,30.06,10.0,East,3.5,-,N/A,,Scattered Clouds,80,2012-12-08 15:15:00
9:35 AM,28.4,23.0,80,30.06,10.0,ESE,3.5,-,N/A,,Clear,120,2012-12-08 15:35:00
9:55 AM,30.2,24.8,80,30.06,10.0,Calm,Calm,-,N/A,,Clear,0,2012-12-08 15:55:00
10:15 AM,30.2,24.8,80,30.08,10.0,SE,3.5,-,N/A,,Clear,140,2012-12-08 16:15:00
10:35 AM,30.2,24.8,80,30.08,10.0,Calm,Calm,-,N/A,,Clear,0,2012-12-08 16:35:00
10:55 AM,30.2,24.8,80,30.07,10.0,Calm,Calm,-,N/A,,Clear,0,2012-12-08 16:55:00
11:15 AM,32.0,24.8,75,30.07,10.0,Calm,Calm,-,N/A,,Clear,0,2012-12-08 17:15:00
11:35 AM,32.0,24.8,75,30.06,10.0,Calm,Calm,-,N/A,,Clear,0,2012-12-08 17:35:00
11:55 AM,33.8,26.6,75,30.05,10.0,Calm,Calm,-,N/A,,Clear,0,2012-12-08 17:55:00
12:15 PM,33.8,26.6,75,30.04,10.0,ESE,4.6,-,N/A,,Clear,120,2012-12-08 18:15:00
12:35 PM,33.8,26.6,75,30.03,10.0,SSE,4.6,-,N/A,,Clear,150,2012-12-08 18:35:00
12:55 PM,35.6,26.6,70,30.03,10.0,SSE,4.6,-,N/A,,Clear,160,2012-12-08 18:55:00
1:15 PM,35.6,26.6,70,30.03,10.0,ESE,5.8,-,N/A,,Clear,110,2012-12-08 19:15:00
1:35 PM,35.6,24.8,65,30.03,10.0,SE,6.9,-,N/A,,Clear,140,2012-12-08 19:35:00
1:55 PM,35.6,24.8,65,30.03,10.0,ESE,6.9,-,N/A,,Clear,120,2012-12-08 19:55:00
2:35 PM,35.6,24.8,65,30.03,10.0,ESE,4.6,-,N/A,,Clear,110,2012-12-08 20:35:00
2:55 PM,35.6,24.8,65,30.02,10.0,ESE,5.8,-,N/A,,Clear,110,2012-12-08 20:55:00
3:15 PM,35.6,24.8,65,30.03,10.0,SE,5.8,-,N/A,,Clear,140,2012-12-08 21:15:00
3:35 PM,35.6,24.8,65,30.03,10.0,SSE,4.6,-,N/A,,Clear,150,2012-12-08 21:35:00
3:55 PM,33.8,24.8,70,30.04,10.0,SSE,3.5,-,N/A,,Clear,150,2012-12-08 21:55:00
4:15 PM,33.8,24.8,70,30.03,10.0,SE,4.6,-,N/A,,Clear,130,2012-12-08 22:15:00
4:35 PM,32.0,24.8,75,30.04,10.0,ESE,3.5,-,N/A,,Clear,110,2012-12-08 22:35:00
4:55 PM,32.0,24.8,75,30.04,10.0,East,4.6,-,N/A,,Clear,90,2012-12-08 22:55:00
5:15 PM,32.0,24.8,75,30.03,10.0,East,5.8,-,N/A,,Clear,90,2012-12-08 23:15:00
5:35 PM,32.0,26.6,80,30.03,10.0,ESE,6.9,-,N/A,,Clear,110,2012-12-08 23:35:00
5:55 PM,30.2,24.8,80,30.03,10.0,ESE,5.8,-,N/A,,Clear,110,2012-12-08 23:55:00
6:15 PM,30.2,24.8,80,30.03,10.0,East,5.8,-,N/A,,Clear,100,2012-12-09 00:15:00
6:35 PM,30.2,24.8,80,30.03,10.0,East,4.6,-,N/A,,Clear,100,2012-12-09 00:35:00
6:55 PM,30.2,24.8,80,30.02,10.0,East,6.9,-,N/A,,Clear,90,2012-12-09 00:55:00
7:15 PM,30.2,24.8,80,30.03,10.0,East,4.6,-,N/A,,Clear,100,2012-12-09 01:15:00
7:36 PM,30.2,24.8,80,30.03,10.0,East,4.6,-,N/A,,Clear,100,2012-12-09 01:36:00
7:55 PM,30.2,24.8,80,30.03,10.0,East,4.6,-,N/A,,Clear,90,2012-12-09 01:55:00
8:15 PM,30.2,24.8,80,30.03,10.0,East,5.8,-,N/A,,Clear,90,2012-12-09 02:15:00
8:35 PM,30.2,24.8,80,30.04,10.0,East,4.6,-,N/A,,Clear,90,2012-12-09 02:35:00
8:55 PM,32.0,24.8,75,30.03,10.0,East,5.8,-,N/A,,Clear,90,2012-12-09 02:55:00
9:15 PM,32.0,24.8,75,30.04,10.0,East,5.8,-,N/A,,Clear,100,2012-12-09 03:15:00
9:35 PM,30.2,24.8,80,30.04,10.0,East,5.8,-,N/A,,Clear,100,2012-12-09 03:35:00
9:55 PM,30.2,24.8,80,30.04,10.0,East,5.8,-,N/A,,Clear,100,2012-12-09 03:55:00
10:15 PM,33.8,24.8,70,30.02,10.0,ESE,10.4,-,N/A,,Clear,120,2012-12-09 04:15:00
10:35 PM,33.8,24.8,70,30.03,10.0,ESE,10.4,-,N/A,,Scattered Clouds,120,2012-12-09 04:35:00
10:55 PM,33.8,24.8,70,30.03,10.0,ESE,8.1,-,N/A,,Mostly Cloudy,120,2012-12-09 04:55:00
11:15 PM,33.8,24.8,70,30.03,10.0,ESE,10.4,-,N/A,,Overcast,120,2012-12-09 05:15:00
11:35 PM,33.8,24.8,70,30.04,10.0,SE,11.5,-,N/A,,Overcast,130,2012-12-09 05:35:00
11:55 PM,33.8,24.8,70,30.04,10.0,SE,9.2,-,N/A,,Overcast,130,2012-12-09 05:55:00